SCP
0 0 0 0 0 0 0 0 0 0 0 0 0 0 0 0 0 0 0 0 0 0 0 0 0 0 0 0 0 0 0 0
0 0 -0 0 0 0 0 0 0 0 0 0 0 0 0 0 0 0 0 0 0 0 0 0 0 0 0 0 0 0 0 0
0 0 -0 -0 0 0 0 0 0 0 0 0 0 0 0 0 0 0 0 0 0 0 0 0 0 0 0 0 0 0 0 0
0 0 0 -0 0 0 0 0 0 0 0 0 0 0 0 0 0 0 0 0 0 0 0 0 0 0 0 0 0 0 0 0
0 0 0 0 0 0 0 0 0 0 0 0 0 0 0 0 0 0 0 0 0 0 0 0 0 0 0 0 0 0 0 0
0 0 0 0 0 0 0 0 0 0 0 0 0 0 0 0 0 0 0 0 0 0 0 0 0 0 0 0 0 0 0 0
0 0 0 0 0 0 0 0 0 0 0 0 0 0 0 0 0 0 0 0 0 0 0 0 0 0 0 0 0 0 0 0
0 0 0 0 0 0 0 0 0 0 0 0 0 0 0 0 0 0 0 0 0 0 0 0 0 0 0 0 0 0 0 0
0 0 0 0 0 0 0 0 0 0 0 0 0 0 0 0 0 0 0 0 0 0 0 0 0 0 0 0 0 0 0 0
0 0 0 0 0 0 0 0 0 0 0 0 0 0 0 0 0 0 0 0 0 0 0 0 0 0 0 0 0 0 0 0
0 0 0 0 0 0 0 0 0 0 0 0 0 0 0 0 0 0 0 0 0 0 0 0 0 0 0 0 0 0 0 0
0 0 0 0 0 0 0 0 0 0 0 0 0 0 0 0 0 0 0 0 0 0 0 0 0 0 0 0 0 0 0 0
0 0 0 0 0 0 0 0 0 0 0 0 0 0 0 0 0 0 0 0 0 0 0 0 0 0 0 0 0 0 0 0
0 0 0 0 0 0 0 0 0 0 0 0 0 0 0 0 0 0 0 0 0 0 0 0 0 0 0 0 0 0 0 0
0 0 0 0 0 0 0 0 0 0 0 0 0 0 0 0 0 0 0 0 0 0 0 0 0 0 0 0 0 0 0 0
0 0 0 0 0 0 0 0 0 0 0 0 0 0 0 0 0 0 0 0 0 0 0 0 0 0 0 0 0 0 0 0
0 0 0 0 0 0 0 0 0 0 0 0 0 0 0 0 0 0 0 0 0 0 0 0 0 0 0 0 0 0 0 0
0 0 0 0 0 0 0 0 0 0 0 0 0 0 0 0 0 0 0 0 0 0 0 0 0 0 0 0 0 0 0 0
0 0 0 0 0 0 0 0 0 0 0 0 0 0 0 0 0 0 0 0 0 0 0 0 0 0 0 0 0 0 0 0
0 0 0 0 0 0 0 0 0 0 0 0 0 0 0 0 0 0 0 0 0 0 0 0 0 0 0 0 0 0 0 0
Wind_Speed_500mb
17 19 19 21 25 33 42 52 63 79 83 81 79 77 74 75 74 69 71 74 66 72 76 79 78 74 69 64 58 51 44 37
13 11 12 16 23 27 36 46 57 73 80 80 77 75 75 77 75 72 70 73 77 76 81 86 83 78 72 65 58 51 43 38
15 13 13 10 17 24 30 39 49 64 76 78 77 77 78 80 76 75 76 76 79 81 87 91 87 81 74 66 58 51 46 38
19 16 20 19 22 26 30 38 45 58 71 78 80 82 81 81 78 76 79 80 83 87 92 96 90 83 75 66 58 52 44 36
45 38 37 33 30 34 38 46 50 57 68 78 83 85 85 81 83 79 80 81 84 89 95 97 92 85 77 70 61 54 47 39
68 70 58 43 39 48 51 55 58 60 67 77 82 85 85 83 85 83 83 84 85 91 97 100 96 89 81 72 65 58 51 37
83 80 64 62 63 64 67 64 63 67 70 76 81 85 87 86 87 87 88 88 90 94 97 102 99 89 79 71 66 59 44 48
88 90 83 79 73 70 65 65 65 67 70 75 79 84 86 87 88 90 89 87 89 95 99 104 98 86 77 70 63 51 52 63
78 79 69 56 53 53 56 57 58 61 68 73 77 81 84 86 87 89 88 88 88 94 98 100 90 82 76 68 59 55 63 70
54 47 37 33 35 38 41 45 49 52 56 62 70 77 80 83 84 85 87 86 85 92 95 89 82 78 71 64 56 62 69 69
17 20 34 37 38 34 32 33 37 39 42 46 55 62 68 72 75 76 78 80 84 83 77 75 74 70 64 63 65 64 75 62
34 34 29 25 25 22 21 20 21 24 26 29 33 40 49 57 64 65 71 68 58 56 58 63 62 66 65 60 71 73 69 62
12 10 7 7 6 9 8 9 8 8 11 13 17 23 33 41 48 53 48 46 46 51 56 63 61 64 76 85 78 66 65 68
10 12 16 18 22 19 23 21 16 15 13 12 13 18 24 31 37 39 41 40 41 48 56 61 64 70 69 68 69 65 70 72
32 33 35 33 32 28 31 31 30 29 25 20 15 13 15 20 27 29 32 37 41 46 50 54 59 62 62 63 64 67 66 69
28 32 36 34 32 31 29 24 23 22 22 24 26 26 25 25 24 25 27 31 38 44 51 57 56 52 48 52 57 59 59 60
24 25 28 22 20 20 21 23 16 13 13 14 14 15 14 16 20 24 27 30 36 39 39 39 40 42 45 48 50 51 51 58
30 32 32 30 29 29 27 24 25 21 15 12 12 10 10 16 20 23 31 36 37 38 40 39 39 40 41 43 46 48 47 48
39 37 34 31 30 28 26 23 19 17 13 13 11 11 10 11 12 16 20 23 26 31 35 35 37 40 41 43 40 34 35 37
34 32 28 24 24 21 18 14 12 8 6 5 2 3 7 10 13 19 22 25 27 27 25 28 32 36 28 31 31 32 31 32
Wind_Direction_500mb
239 263 274 278 273 263 254 248 241 231 231 231 230 227 226 223 223 226 229 228 224 226 217 207 203 204 204 204 205 207 206 207
229 254 282 300 295 280 265 254 240 230 232 233 233 230 226 224 224 230 230 230 226 222 217 209 206 204 205 206 207 207 208 205
228 243 258 276 294 294 281 266 249 235 232 234 234 232 228 225 224 230 231 230 228 222 216 211 208 208 208 209 209 210 209 208
251 280 280 272 281 275 276 270 256 239 233 233 234 233 231 227 229 230 230 228 227 223 217 213 210 210 210 211 213 211 210 210
269 282 299 279 276 279 274 266 256 243 236 234 235 235 234 230 230 231 231 231 229 225 218 215 213 212 212 211 210 210 208 208
273 277 289 283 277 291 276 268 258 248 240 238 237 236 235 232 231 231 232 233 231 226 219 216 215 215 213 212 210 210 209 221
278 284 289 293 291 289 281 269 258 251 246 241 239 237 236 234 233 233 233 233 231 227 221 218 216 215 214 214 213 211 219 221
277 281 285 288 286 279 275 272 262 256 251 246 242 239 238 236 234 234 234 236 233 227 220 219 218 215 214 214 214 215 227 237
279 282 280 276 273 272 267 266 262 258 252 249 244 240 238 237 235 234 233 235 233 227 222 219 217 216 215 215 213 227 233 243
278 277 274 276 274 271 267 264 261 257 254 251 247 241 238 236 234 234 234 233 230 227 222 218 217 218 217 214 224 231 239 248
261 266 282 280 274 267 265 266 265 263 259 254 249 246 242 239 236 234 235 234 230 225 219 221 220 219 219 218 230 238 247 254
272 271 266 264 257 258 262 264 255 254 253 249 246 243 239 235 234 234 233 231 226 218 218 223 221 221 218 235 241 245 254 255
240 235 241 244 248 239 231 231 219 218 220 222 224 228 227 226 227 228 226 228 217 211 213 219 216 224 237 244 240 247 255 260
155 138 122 110 95 97 103 98 105 118 130 148 168 186 205 206 207 208 221 217 208 208 215 226 234 242 239 237 242 246 257 264
122 120 116 111 107 102 102 105 105 102 100 102 117 145 175 192 211 223 226 225 226 231 236 237 242 237 234 238 244 256 257 260
130 126 121 120 121 119 113 111 106 106 113 129 138 142 155 175 195 206 218 231 235 234 240 246 244 248 248 253 256 257 254 253
145 137 126 127 134 135 133 129 126 120 131 129 133 142 159 184 196 211 220 229 233 235 237 239 243 247 250 250 248 248 247 251
138 135 129 128 126 123 123 123 124 127 133 147 152 167 199 216 220 224 225 232 237 239 240 241 244 245 247 250 252 254 255 254
135 130 126 125 124 120 117 115 116 117 132 137 141 152 171 199 219 238 246 247 247 241 241 247 249 251 252 254 262 255 257 259
137 130 124 122 116 114 112 109 109 117 124 116 154 192 222 224 227 233 237 242 244 247 251 251 248 258 267 266 260 257 256 259
Wind_Speed_850mb
17 19 19 21 25 33 42 52 63 79 83 81 79 77 74 75 74 69 71 74 66 72 76 79 78 74 69 64 58 51 44 37
13 11 12 16 23 27 36 46 57 73 80 80 77 75 75 77 75 72 70 73 77 76 81 86 83 78 72 65 58 51 43 38
15 13 13 10 17 24 30 39 49 64 76 78 77 77 78 80 76 75 76 76 79 81 87 91 87 81 74 66 58 51 46 38
19 16 20 19 22 26 30 38 45 58 71 78 80 82 81 81 78 76 79 80 83 87 92 96 90 83 75 66 58 52 44 36
45 38 37 33 30 34 38 46 50 57 68 78 83 85 85 81 83 79 80 81 84 89 95 97 92 85 77 70 61 54 47 39
68 70 58 43 39 48 51 55 58 60 67 77 82 85 85 83 85 83 83 84 85 91 97 100 96 89 81 72 65 58 51 37
83 80 64 62 63 64 67 64 63 67 70 76 81 85 87 86 87 87 88 88 90 94 97 102 99 89 79 71 66 59 44 48
88 90 83 79 73 70 65 65 65 67 70 75 79 84 86 87 88 90 89 87 89 95 99 104 98 86 77 70 63 51 52 63
78 79 69 56 53 53 56 57 58 61 68 73 77 81 84 86 87 89 88 88 88 94 98 100 90 82 76 68 59 55 63 70
54 47 37 33 35 38 41 45 49 52 56 62 70 77 80 83 84 85 87 86 85 92 95 89 82 78 71 64 56 62 69 69
17 20 34 37 38 34 32 33 37 39 42 46 55 62 68 72 75 76 78 80 84 83 77 75 74 70 64 63 65 64 75 62
34 34 29 25 25 22 21 20 21 24 26 29 33 40 49 57 64 65 71 68 58 56 58 63 62 66 65 60 71 73 69 62
12 10 7 7 6 9 8 9 8 8 11 13 17 23 33 41 48 53 48 46 46 51 56 63 61 64 76 85 78 66 65 68
10 12 16 18 22 19 23 21 16 15 13 12 13 18 24 31 37 39 41 40 41 48 56 61 64 70 69 68 69 65 70 72
32 33 35 33 32 28 31 31 30 29 25 20 15 13 15 20 27 29 32 37 41 46 50 54 59 62 62 63 64 67 66 69
28 32 36 34 32 31 29 24 23 22 22 24 26 26 25 25 24 25 27 31 38 44 51 57 56 52 48 52 57 59 59 60
24 25 28 22 20 20 21 23 16 13 13 14 14 15 14 16 20 24 27 30 36 39 39 39 40 42 45 48 50 51 51 58
30 32 32 30 29 29 27 24 25 21 15 12 12 10 10 16 20 23 31 36 37 38 40 39 39 40 41 43 46 48 47 48
39 37 34 31 30 28 26 23 19 17 13 13 11 11 10 11 12 16 20 23 26 31 35 35 37 40 41 43 40 34 35 37
34 32 28 24 24 21 18 14 12 8 6 5 2 3 7 10 13 19 22 25 27 27 25 28 32 36 28 31 31 32 31 32
Wind_Direction_850mb
239 263 274 278 273 263 254 248 241 231 231 231 230 227 226 223 223 226 229 228 224 226 217 207 203 204 204 204 205 207 206 207
229 254 282 300 295 280 265 254 240 230 232 233 233 230 226 224 224 230 230 230 226 222 217 209 206 204 205 206 207 207 208 205
228 243 258 276 294 294 281 266 249 235 232 234 234 232 228 225 224 230 231 230 228 222 216 211 208 208 208 209 209 210 209 208
251 280 280 272 281 275 276 270 256 239 233 233 234 233 231 227 229 230 230 228 227 223 217 213 210 210 210 211 213 211 210 210
269 282 299 279 276 279 274 266 256 243 236 234 235 235 234 230 230 231 231 231 229 225 218 215 213 212 212 211 210 210 208 208
273 277 289 283 277 291 276 268 258 248 240 238 237 236 235 232 231 231 232 233 231 226 219 216 215 215 213 212 210 210 209 221
278 284 289 293 291 289 281 269 258 251 246 241 239 237 236 234 233 233 233 233 231 227 221 218 216 215 214 214 213 211 219 221
277 281 285 288 286 279 275 272 262 256 251 246 242 239 238 236 234 234 234 236 233 227 220 219 218 215 214 214 214 215 227 237
279 282 280 276 273 272 267 266 262 258 252 249 244 240 238 237 235 234 233 235 233 227 222 219 217 216 215 215 213 227 233 243
278 277 274 276 274 271 267 264 261 257 254 251 247 241 238 236 234 234 234 233 230 227 222 218 217 218 217 214 224 231 239 248
261 266 282 280 274 267 265 266 265 263 259 254 249 246 242 239 236 234 235 234 230 225 219 221 220 219 219 218 230 238 247 254
272 271 266 264 257 258 262 264 255 254 253 249 246 243 239 235 234 234 233 231 226 218 218 223 221 221 218 235 241 245 254 255
240 235 241 244 248 239 231 231 219 218 220 222 224 228 227 226 227 228 226 228 217 211 213 219 216 224 237 244 240 247 255 260
155 138 122 110 95 97 103 98 105 118 130 148 168 186 205 206 207 208 221 217 208 208 215 226 234 242 239 237 242 246 257 264
122 120 116 111 107 102 102 105 105 102 100 102 117 145 175 192 211 223 226 225 226 231 236 237 242 237 234 238 244 256 257 260
130 126 121 120 121 119 113 111 106 106 113 129 138 142 155 175 195 206 218 231 235 234 240 246 244 248 248 253 256 257 254 253
145 137 126 127 134 135 133 129 126 120 131 129 133 142 159 184 196 211 220 229 233 235 237 239 243 247 250 250 248 248 247 251
138 135 129 128 126 123 123 123 124 127 133 147 152 167 199 216 220 224 225 232 237 239 240 241 244 245 247 250 252 254 255 254
135 130 126 125 124 120 117 115 116 117 132 137 141 152 171 199 219 238 246 247 247 241 241 247 249 251 252 254 262 255 257 259
137 130 124 122 116 114 112 109 109 117 124 116 154 192 222 224 227 233 237 242 244 247 251 251 248 258 267 266 260 257 256 259